This is the latest recevied weather packets stored in our database for station/object KD2FKI. If no packets are shown the sender has not sent any weather packets the latest 10 day(s).
| Time | Temp. | Humidity | Pressure | Rain* | Wind** | Luminosity | Snow |
|---|---|---|---|---|---|---|---|
| 1778128231 | 14.44° C | 88% | - | 0 mm | - | - | - |
| 1778127638 | 15° C | 89% | - | 0 mm | - | - | - |
| 1778127051 | 15° C | 87% | - | 0 mm | - | - | - |
| 1778126436 | 15.56° C | 84% | - | 0 mm | - | - | - |
| 1778125848 | 16.11° C | 85% | - | 0 mm | - | - | - |
| 1778125252 | 16.11° C | 85% | - | 0 mm | - | - | - |
| 1778124646 | 16.11° C | 85% | - | 0 mm | - | - | - |
| 1778124031 | 16.67° C | 83% | - | 0 mm | - | - | - |
| 1778123442 | 16.67° C | 81% | - | 0 mm | - | - | - |
| 1778122847 | 16.67° C | 80% | - | 0 mm | - | - | - |
| 1778122242 | 17.22° C | 80% | - | 0 mm | - | - | - |
| 1778121644 | 17.22° C | 81% | - | 0 mm | - | - | - |
| 1778121038 | 17.22° C | 81% | - | 0 mm | - | - | - |
| 1778120444 | 17.78° C | 82% | - | 0 mm | - | - | - |
| 1778119836 | 17.78° C | 82% | - | 0 mm | - | - | - |
| 1778119239 | 17.78° C | 83% | - | 0 mm | - | - | - |
| 1778118649 | 18.33° C | 85% | - | 0 mm | - | - | - |
| 1778118037 | 18.89° C | 87% | - | 0 mm | - | - | - |
| 1778117447 | 18.89° C | 87% | - | 0 mm | - | - | - |
| 1778116835 | 18.89° C | 86% | - | 0 mm | - | - | - |
| 1778116244 | 19.44° C | 85% | - | 0 mm | - | - | - |
| 1778115632 | 19.44° C | 82% | - | 0 mm | - | - | - |
| 1778115043 | 20° C | 83% | - | 0 mm | - | - | - |
| 1778114429 | 20° C | 86% | - | 0 mm | - | - | - |
| 1778113839 | 20.56° C | 86% | - | 0 mm | - | - | - |
* Rain latest hour (hover to see other rain measurements)
** Current wind speed in m/s (hover to see current wind gust speed)